Location: Los Gatos B&B
(42.6926°N, 77.0646°W)
Time: 03:46:09
(UTC-04:00)

Amateur Radio Satellites - All Passes

Search period start: 25 October 2014 03:16
Search period end: 26 October 2014 03:16
Location: Los Gatos B&B, 42.6926°N, 77.0646°W

Satellite Date Start Highest point End Downlink Frequencies (MHz)
Time Altitude Azimuth
AO-Echo 25 Oct 03:34:10 03:39:28 72° 286° (WNW) 03:44:45 ?
Oscar 16 25 Oct 03:40:36 03:45:12 34° 293° (WNW) 03:49:47 437.025 USB, Beacon 2401.1428
JAS-1B 25 Oct 03:42:36 03:49:01 56° 290° (WNW) 03:56:39 435.800 - 435.900 CW/SSB
Sapphire 25 Oct 03:43:29 03:48:17 34° 110° (ESE) 03:53:07 437.095 MHz 1200 baud AX-25 AFSK
Uribyol 2 25 Oct 04:00:06 04:05:10 53° 289° (WNW) 04:10:12 436.500 FM
PCSat 25 Oct 04:05:25 04:10:41 57° 115° (ESE) 04:16:00 145.825 MHz
ITAMSAT 1 25 Oct 04:06:12 04:11:14 50° 290° (WNW) 04:16:15 435.822 SSB
RS-15 25 Oct 04:24:56 04:33:32 25° 15° (NNE) 04:42:18 29.354 - 29.394 USB, Beacon 29.352 USB
Gurwin Techsat 1B 25 Oct 04:26:50 04:32:05 60° 288° (WNW) 04:37:17 435.225 FM
OPAL 25 Oct 04:29:48 04:34:13 30° 64° (ENE) 04:38:35 ?
Oscar 19 25 Oct 04:35:59 04:38:06 13° 302° (WNW) 04:40:13 437.125 CW, 437.150 USB
TMSAT-1 25 Oct 04:37:57 04:43:12 64° 287° (WNW) 04:48:26 436.925 FM
AO-27 25 Oct 04:52:49 04:56:36 21° 298° (WNW) 05:00:22 436.795 MHz FM
JAS-2 25 Oct 05:11:10 05:16:25 19° 87° (E) 05:21:39 435.800 - 435.900 CW/SSB, 435.910 FM
AO-Echo 25 Oct 05:16:06 05:17:17 11° 304° (NW) 05:18:28 ?
AO-7 25 Oct 05:17:52 05:26:04 59° 103° (ESE) 05:34:15 29.400 - 29.500 MHz
Uosat F 25 Oct 05:19:20 05:24:15 48° 100° (E) 05:29:06 435.120 FM
Sapphire 25 Oct 05:26:37 05:31:38 38° 309° (NW) 05:36:41 437.095 MHz 1200 baud AX-25 AFSK
PCSat 25 Oct 05:50:01 05:54:27 25° 314° (NW) 05:58:56 145.825 MHz
OPAL 25 Oct 06:08:15 06:12:58 36° 260° (W) 06:17:40 ?
STRAND 1 25 Oct 06:14:32 06:18:56 30° 66° (ENE) 06:23:23 ?
Hamsat 25 Oct 06:22:01 06:25:42 29° 96° (E) 06:29:23 145.90 MHz
RS-15 25 Oct 06:38:17 06:49:10 55° 46° (NE) 07:00:25 29.354 - 29.394 USB, Beacon 29.352 USB
JAS-2 25 Oct 06:54:26 07:02:16 90° 285° (WNW) 07:10:05 435.800 - 435.900 CW/SSB, 435.910 FM
Uosat F 25 Oct 06:58:52 07:02:41 22° 297° (WNW) 07:06:29 435.120 FM
AO-7 25 Oct 07:11:13 07:18:27 35° 303° (WNW) 07:25:41 29.400 - 29.500 MHz
Saudisat 1A 25 Oct 07:13:42 07:17:14 24° 113° (ESE) 07:20:49 436.775 MHz
SO-67 25 Oct 07:25:06 07:27:23 17° 93° (E) 07:29:40 435.3500 MHz FM
STRAND 1 25 Oct 07:53:21 07:58:01 35° 263° (W) 08:02:44 ?
Hamsat 25 Oct 07:58:08 08:01:32 24° 292° (WNW) 08:04:56 145.90 MHz
JAS-2 25 Oct 08:40:48 08:46:19 22° 303° (WNW) 08:51:53 435.800 - 435.900 CW/SSB, 435.910 FM
RS-15 25 Oct 08:50:57 09:01:29 50° 249° (WSW) 09:12:29 29.354 - 29.394 USB, Beacon 29.352 USB
Saudisat 1A 25 Oct 08:52:30 08:56:37 39° 311° (NW) 09:00:46 436.775 MHz
SO-67 25 Oct 08:57:25 09:00:24 27° 289° (WNW) 09:03:22 435.3500 MHz FM
MaSat-1 25 Oct 09:02:36 09:04:54 25° 57° (ENE) 09:07:02 437.345 MHz
HO-68 25 Oct 09:28:48 09:35:21 36° 97° (E) 09:41:49 435.675 MHz FM
UKube-1 25 Oct 09:35:41 09:36:21 10° 89° (E) 09:37:01 145.840 MHz, 145.915 MHz
Oscar 11 25 Oct 10:14:13 10:17:53 27° 95° (E) 10:21:32 145.825 FM, Beacon 2401.500 USB
FUNcube-1 25 Oct 10:15:23 10:16:28 11° 89° (E) 10:17:32 145.950 - 145.970 MHz USB
ZACube-1 25 Oct 11:04:35 11:08:36 39° 98° (E) 11:12:31 437.345 MHz
KITSAT 1 25 Oct 11:04:55 11:10:13 19° 102° (ESE) 11:15:31 435.175 FM
UKube-1 25 Oct 11:08:40 11:13:03 74° 286° (WNW) 11:17:23 145.840 MHz, 145.915 MHz
PCSat 25 Oct 11:11:10 11:13:11 12° 33° (NNE) 11:15:13 145.825 MHz
HO-68 25 Oct 11:16:22 11:23:09 46° 295° (WNW) 11:29:54 435.675 MHz FM
FUNcube-1 25 Oct 11:49:06 11:53:20 65° 286° (WNW) 11:57:27 145.950 - 145.970 MHz USB
Oscar 11 25 Oct 11:50:21 11:54:01 28° 292° (WNW) 11:57:40 145.825 FM, Beacon 2401.500 USB
ISS 25 Oct 12:22:40 12:25:22 23° 135° (SE) 12:28:04 145.800 FM
Sapphire 25 Oct 12:30:15 12:35:12 34° 50° (NE) 12:40:08 437.095 MHz 1200 baud AX-25 AFSK
Oscar 19 25 Oct 12:34:46 12:38:19 19° 62° (ENE) 12:41:51 437.125 CW, 437.150 USB
JAS-1B 25 Oct 12:41:25 12:45:38 21° 61° (ENE) 12:49:46 435.800 - 435.900 CW/SSB
ZACube-1 25 Oct 12:41:43 12:44:42 19° 295° (WNW) 12:47:39 437.345 MHz
Oscar 10/S400 25 Oct 12:45:28 13:02:27 26° 150° (SSE) 13:18:04 145.825 - 145.975 CW/USB, Beacon 145.810 USB
PCSat 25 Oct 12:52:34 12:57:54 53° 55° (NE) 13:03:11 145.825 MHz
SO-50 25 Oct 12:54:59 12:59:13 43° 117° (ESE) 13:03:36 436.795 FM
AO-27 25 Oct 12:55:23 12:57:43 13° 57° (ENE) 13:00:02 436.795 MHz FM
KITSAT 1 25 Oct 12:56:27 13:04:32 89° 301° (WNW) 13:12:41 435.175 FM
AO-Echo 25 Oct 13:10:51 13:14:27 21° 62° (ENE) 13:18:07 ?
Oscar 16 25 Oct 13:18:55 13:23:51 47° 70° (ENE) 13:28:47 437.025 USB, Beacon 2401.1428
Uribyol 2 25 Oct 13:39:58 13:44:35 33° 67° (ENE) 13:49:13 436.500 FM
ITAMSAT 1 25 Oct 13:46:04 13:50:45 35° 67° (ENE) 13:55:28 435.822 SSB
ISS 25 Oct 13:58:38 14:01:52 48° 332° (NNW) 14:05:08 145.800 FM
Gurwin Techsat 1B 25 Oct 14:09:41 14:14:17 31° 66° (ENE) 14:18:54 435.225 FM
Oscar 19 25 Oct 14:12:07 14:17:12 59° 259° (W) 14:22:17 437.125 CW, 437.150 USB
Sapphire 25 Oct 14:13:40 14:18:39 38° 249° (WSW) 14:23:36 437.095 MHz 1200 baud AX-25 AFSK
UOSAT-12 25 Oct 14:15:48 14:19:42 27° 113° (ESE) 14:23:41 437.025 FM, 437.400 FM
TMSAT-1 25 Oct 14:20:38 14:25:08 29° 66° (ENE) 14:29:39 436.925 FM
AO-7 25 Oct 14:28:31 14:34:05 21° 49° (NE) 14:39:40 29.400 - 29.500 MHz
JAS-1B 25 Oct 14:30:08 14:35:58 54° 259° (W) 14:41:32 435.800 - 435.900 CW/SSB
AO-27 25 Oct 14:31:13 14:36:26 90° 77° (ENE) 14:41:43 436.795 MHz FM
SO-50 25 Oct 14:36:08 14:39:57 26° 316° (NW) 14:43:53 436.795 FM
PCSat 25 Oct 14:36:45 14:40:55 23° 253° (WSW) 14:45:03 145.825 MHz
AO-Echo 25 Oct 14:48:03 14:52:48 51° 261° (W) 14:57:45 ?
KITSAT 1 25 Oct 14:54:26 15:01:03 27° 324° (NW) 15:07:42 435.175 FM
Oscar 16 25 Oct 14:59:29 15:03:25 22° 267° (W) 15:07:22 437.025 USB, Beacon 2401.1428
Uribyol 2 25 Oct 15:19:21 15:24:00 32° 264° (W) 15:28:42 436.500 FM
ITAMSAT 1 25 Oct 15:25:42 15:30:15 30° 264° (W) 15:34:50 435.822 SSB
ISS 25 Oct 15:36:41 15:39:09 19° 352° (N) 15:41:37 145.800 FM
Saudisat 1A 25 Oct 15:38:58 15:42:48 28° 45° (NE) 15:46:37 436.775 MHz
Gurwin Techsat 1B 25 Oct 15:49:19 15:54:09 35° 263° (W) 15:59:01 435.225 FM
UOSAT-12 25 Oct 15:55:20 15:59:42 39° 312° (NW) 16:04:09 437.025 FM, 437.400 FM
TMSAT-1 25 Oct 15:59:59 16:04:53 38° 263° (W) 16:09:50 436.925 FM
AO-27 25 Oct 16:15:16 16:16:39 11° 272° (W) 16:18:03 436.795 MHz FM
AO-7 25 Oct 16:17:24 16:25:40 82° 70° (ENE) 16:33:59 29.400 - 29.500 MHz
Uosat F 25 Oct 16:33:14 16:38:14 73° 74° (ENE) 16:43:16 435.120 FM
KITSAT 1 25 Oct 16:56:26 16:59:53 13° 353° (N) 17:03:20 435.175 FM
JAS-2 25 Oct 17:07:34 17:13:13 43° 66° (ENE) 17:19:35 435.800 - 435.900 CW/SSB, 435.910 FM
ISS 25 Oct 17:14:06 17:16:42 20° 12° (NNE) 17:19:18 145.800 FM
Hamsat 25 Oct 17:16:22 17:19:44 24° 68° (ENE) 17:23:06 145.90 MHz
Saudisat 1A 25 Oct 17:18:22 17:22:27 37° 244° (WSW) 17:26:30 436.775 MHz
AO-7 25 Oct 18:13:21 18:19:19 22° 268° (W) 18:25:20 29.400 - 29.500 MHz
Uosat F 25 Oct 18:15:09 18:17:33 13° 270° (W) 18:19:58 435.120 FM
OPAL 25 Oct 18:16:54 18:21:47 53° 103° (ESE) 18:26:36 ?
ISS 25 Oct 18:50:32 18:53:52 66° 31° (NNE) 18:57:11 145.800 FM
Hamsat 25 Oct 18:51:51 18:55:33 30° 264° (W) 18:59:15 145.90 MHz
JAS-2 25 Oct 18:53:08 18:58:26 33° 268° (W) 19:04:22 435.800 - 435.900 CW/SSB, 435.910 FM
KITSAT 1 25 Oct 18:54:06 18:59:20 18° 24° (NNE) 19:04:32 435.175 FM
SO-67 25 Oct 19:29:56 19:33:22 80° 258° (WSW) 19:36:50 435.3500 MHz FM
SO-50 25 Oct 19:46:57 19:48:35 12° 31° (NNE) 19:50:13 436.795 FM
OPAL 25 Oct 19:56:43 20:00:16 20° 300° (WNW) 20:03:48 ?
HO-68 25 Oct 19:58:39 20:04:42 31° 60° (ENE) 20:10:46 435.675 MHz FM
STRAND 1 25 Oct 20:02:33 20:07:44 75° 103° (ESE) 20:12:52 ?
ISS 25 Oct 20:28:03 20:30:13 16° 228° (SW) 20:32:23 145.800 FM
UKube-1 25 Oct 20:31:54 20:33:20 12° 60° (ENE) 20:34:46 145.840 MHz, 145.915 MHz
KITSAT 1 25 Oct 20:49:00 20:56:53 52° 50° (NE) 21:04:41 435.175 FM
RS-15 25 Oct 21:05:34 21:14:04 27° 103° (ESE) 21:22:27 29.354 - 29.394 USB, Beacon 29.352 USB
Oscar 11 25 Oct 21:10:12 21:13:42 24° 67° (ENE) 21:17:11 145.825 FM, Beacon 2401.500 USB
FUNcube-1 25 Oct 21:12:26 21:14:17 12° 61° (ENE) 21:16:08 145.950 - 145.970 MHz USB
SO-50 25 Oct 21:25:32 21:30:16 51° 51° (NE) 21:35:01 436.795 FM
STRAND 1 25 Oct 21:43:21 21:46:18 16° 301° (WNW) 21:49:14 ?
HO-68 25 Oct 21:45:00 21:52:00 57° 258° (WSW) 21:59:05 435.675 MHz FM
ZACube-1 25 Oct 22:01:24 22:05:37 37° 71° (ENE) 22:09:47 437.345 MHz
UKube-1 25 Oct 22:04:32 22:08:53 78° 257° (WSW) 22:13:17 145.840 MHz, 145.915 MHz
UOSAT-12 25 Oct 22:44:08 22:48:24 32° 46° (NE) 22:52:37 437.025 FM, 437.400 FM
KITSAT 1 25 Oct 22:44:45 22:52:05 40° 250° (WSW) 22:59:23 435.175 FM
FUNcube-1 25 Oct 22:45:29 22:50:04 77° 258° (WSW) 22:54:36 145.950 - 145.970 MHz USB
Oscar 11 25 Oct 22:45:52 22:49:44 31° 264° (W) 22:53:36 145.825 FM, Beacon 2401.500 USB
SO-50 25 Oct 23:06:49 23:10:30 22° 249° (WSW) 23:14:12 436.795 FM
RS-15 25 Oct 23:14:06 23:25:07 82° 304° (NW) 23:36:08 29.354 - 29.394 USB, Beacon 29.352 USB
ZACube-1 25 Oct 23:38:32 23:42:06 22° 266° (W) 23:45:38 437.345 MHz
MaSat-1 26 Oct 00:14:05 00:18:10 71° 297° (WNW) 00:21:51 437.345 MHz
UOSAT-12 26 Oct 00:24:18 00:28:33 34° 245° (WSW) 00:32:44 437.025 FM, 437.400 FM
RS-15 26 Oct 01:30:00 01:39:22 31° 332° (NNW) 01:48:50 29.354 - 29.394 USB, Beacon 29.352 USB
Oscar 16 26 Oct 01:31:11 01:34:09 15° 90° (E) 01:37:06 437.025 USB, Beacon 2401.1428
ITAMSAT 1 26 Oct 02:00:38 02:02:01 11° 88° (E) 02:03:23 435.822 SSB
JAS-1B 26 Oct 02:11:03 02:17:22 39° 98° (E) 02:24:45 435.800 - 435.900 CW/SSB
Oscar 19 26 Oct 02:22:57 02:27:53 46° 99° (E) 02:32:47 437.125 CW, 437.150 USB
Gurwin Techsat 1B 26 Oct 02:27:39 02:28:45 11° 87° (E) 02:29:51 435.225 FM
AO-27 26 Oct 02:43:57 02:48:33 30° 96° (E) 02:53:07 436.795 MHz FM
AO-Echo 26 Oct 02:54:09 02:59:20 50° 99° (E) 03:04:28 ?
